Date String (YYYY-MM-DD hh:mm:ss) UTC,Instrument flags,Ambient pressure (hPa),Sample flow (lpm),Bypass flow (lpm),Sample temperature (°C),Ambient temperature (°C),ASC tube jacket temperature (°C),LED temperature (°C),Box temperature (°C),Sample RH (%),Span deviation,Mass concentration (μg/m³),Mass concentration (μg/m³),Mass concentration (μg/m³)
DateTimeUTC,F1_M11,P_M11,Q1_M11,Q2_M11,T1_M11,T2_M11,T3_M11,T4_M11,T5_M11,U1_M11,ZSPAN_M11,X0_M11,X2_M11,X1_M11
2022-05-15 17:00:00,,0832.0,4.99,0.00,29.5,27.6,00.0,38.5,31.2,16.7,0000.0,0015.45,0004.01,0002.88
2022-05-15 17:01:00,,0832.0,5.00,0.00,29.5,27.8,00.0,38.5,31.3,16.8,0000.0,0017.01,0003.99,0002.85
2022-05-15 17:02:00,,0832.1,5.00,0.00,29.6,28.0,00.0,38.5,31.3,16.7,0000.0,0017.95,0003.99,0002.83
2022-05-15 17:03:00,,0832.0,5.00,0.00,29.6,28.2,00.0,38.5,31.4,16.3,0000.0,0017.90,0004.06,0002.83
2022-05-15 17:04:00,,0832.0,5.00,0.00,29.6,28.2,00.0,38.5,31.4,16.4,0000.0,0017.10,0004.09,0002.82
2022-05-15 17:05:00,,0832.0,5.01,0.00,29.6,28.3,00.0,38.5,31.4,16.5,0000.0,0016.87,0004.07,0002.81
2022-05-15 17:06:00,,0832.0,4.99,0.00,29.6,28.4,00.0,38.5,31.4,16.5,0000.0,0016.98,0004.10,0002.80
2022-05-15 17:07:00,,0832.0,5.00,0.00,29.7,28.5,00.0,38.5,31.4,16.6,0000.0,0016.40,0004.12,0002.77
2022-05-15 17:08:00,,0832.0,5.00,0.00,29.7,28.5,00.0,38.5,31.5,16.7,0000.0,0015.55,0004.10,0002.75
2022-05-15 17:09:00,,0832.0,5.00,0.00,29.7,28.6,00.0,38.5,31.5,16.3,0000.0,0015.32,0004.12,0002.73
2022-05-15 17:10:00,,0832.0,4.99,0.00,29.7,28.6,00.0,38.6,31.5,16.1,0000.0,0015.41,0004.09,0002.72
2022-05-15 17:11:00,,0832.0,5.01,0.00,29.7,28.7,00.0,38.6,31.6,16.3,0000.0,0014.76,0004.05,0002.72
2022-05-15 17:12:00,,0832.0,5.00,0.00,29.8,28.8,00.0,38.6,31.6,16.2,0000.0,0013.29,0004.10,0002.76
2022-05-15 17:13:00,,0832.0,5.00,0.00,29.8,28.8,00.0,38.6,31.6,16.5,0000.0,0012.32,0004.14,0002.77
2022-05-15 17:14:00,,0832.0,5.01,0.00,29.8,28.8,00.0,38.6,31.6,16.2,0000.0,0011.86,0004.13,0002.76
2022-05-15 17:15:00,,0831.9,4.99,0.00,29.8,28.9,00.0,38.7,31.7,16.0,0000.0,0012.18,0004.12,0002.76
2022-05-15 17:16:00,,0831.9,4.99,0.00,29.8,28.9,00.0,38.7,31.7,16.0,0000.0,0011.62,0004.06,0002.75
2022-05-15 17:17:00,,0832.0,4.99,0.00,29.8,27.9,00.0,38.7,31.4,16.1,0000.0,0012.34,0004.00,0002.74
2022-05-15 17:18:00,,0831.9,5.01,0.00,29.7,26.3,00.0,38.7,31.2,16.3,0000.0,0013.34,0004.01,0002.72
2022-05-15 17:19:00,,0831.9,5.00,0.00,29.7,26.5,00.0,38.6,31.2,16.4,0000.0,0013.89,0004.00,0002.71
2022-05-15 17:20:00,,0831.9,5.01,0.00,29.6,26.8,00.0,38.6,31.2,16.1,0000.0,0014.70,0003.95,0002.71
2022-05-15 17:21:00,,0831.9,4.98,0.00,29.6,27.1,00.0,38.6,31.3,16.3,0000.0,0015.21,0003.95,0002.71
2022-05-15 17:22:00,,0831.9,5.00,0.00,29.6,27.4,00.0,38.6,31.3,16.2,0000.0,0015.44,0004.03,0002.72
2022-05-15 17:23:00,,0831.8,5.01,0.00,29.6,27.7,00.0,38.6,31.3,16.0,0000.0,0016.02,0004.01,0002.68
2022-05-15 17:24:00,,0831.8,5.02,0.00,29.6,27.9,00.0,38.6,31.3,16.2,0000.0,0016.97,0003.95,0002.65
2022-05-15 17:25:00,,0831.8,4.99,0.00,29.6,28.0,00.0,38.5,31.3,16.1,0000.0,0016.89,0003.88,0002.62
2022-05-15 17:26:00,,0831.7,5.00,0.00,29.6,28.2,00.0,38.5,31.4,16.1,0000.0,0016.17,0003.83,0002.61
2022-05-15 17:27:00,,0831.7,5.00,0.00,29.6,28.3,00.0,38.5,31.4,16.3,0000.0,0016.97,0003.87,0002.58
2022-05-15 17:28:00,,0831.7,4.98,0.00,29.7,28.4,00.0,38.5,31.4,16.0,0000.0,0016.65,0003.88,0002.56
2022-05-15 17:29:00,,0831.7,4.99,0.00,29.7,28.5,00.0,38.6,31.5,16.5,0000.0,0015.57,0003.83,0002.55
2022-05-15 17:30:00,,0831.8,5.00,0.00,29.7,28.6,00.0,38.6,31.5,16.8,0000.0,0015.70,0003.83,0002.56
2022-05-15 17:31:00,,0831.7,5.00,0.00,29.7,28.7,00.0,38.6,31.5,15.9,0000.0,0015.27,0003.90,0002.58
2022-05-15 17:32:00,,0831.7,5.01,0.00,29.7,28.7,00.0,38.6,31.5,16.0,0000.0,0014.59,0003.93,0002.60
2022-05-15 17:33:00,,0831.7,5.00,0.00,29.7,28.7,00.0,38.6,31.5,15.9,0000.0,0015.16,0003.89,0002.59
2022-05-15 17:34:00,,0831.7,5.00,0.00,29.7,28.7,00.0,38.6,31.5,16.1,0000.0,0015.05,0003.87,0002.60
2022-05-15 17:35:00,,0831.7,5.00,0.00,29.7,28.0,00.0,38.6,31.4,16.0,0000.0,0014.11,0003.90,0002.62
2022-05-15 17:36:00,,0831.6,5.01,0.00,29.6,26.4,00.0,38.6,31.1,15.9,0000.0,0013.10,0003.90,0002.65
2022-05-15 17:37:00,,0831.7,5.00,0.00,29.6,26.4,00.0,38.6,31.1,15.6,0000.0,0013.32,0003.98,0002.69
2022-05-15 17:38:00,,0831.7,4.99,0.00,29.5,26.7,00.0,38.5,31.1,16.0,0000.0,0013.53,0003.95,0002.71
2022-05-15 17:39:00,,0831.6,5.00,0.00,29.5,27.0,00.0,38.5,31.2,15.9,0000.0,0012.87,0003.93,0002.72
2022-05-15 17:40:00,,0831.7,5.01,0.00,29.5,27.4,00.0,38.5,31.2,16.1,0000.0,0013.07,0003.94,0002.74
2022-05-15 17:41:00,,0831.7,5.00,0.00,29.5,27.6,00.0,38.5,31.2,16.0,0000.0,0013.12,0003.94,0002.75
2022-05-15 17:42:00,,0831.6,4.99,0.00,29.5,27.8,00.0,38.5,31.2,16.4,0000.0,0012.85,0003.91,0002.71
2022-05-15 17:43:00,,0831.6,4.99,0.00,29.5,28.0,00.0,38.5,31.3,16.8,0000.0,0012.75,0003.85,0002.66
2022-05-15 17:44:00,,0831.5,5.00,0.00,29.5,28.1,00.0,38.5,31.3,16.9,0000.0,0012.16,0003.84,0002.62
2022-05-15 17:45:00,,0831.7,5.01,0.00,29.6,28.2,00.0,38.5,31.3,16.9,0000.0,0011.28,0003.80,0002.58
2022-05-15 17:46:00,,0831.6,5.01,0.00,29.6,28.3,00.0,38.5,31.4,16.9,0000.0,0011.53,0003.79,0002.53
2022-05-15 17:47:00,,0831.6,5.00,0.00,29.6,28.4,00.0,38.5,31.4,16.4,0000.0,0012.08,0003.76,0002.48
2022-05-15 17:48:00,,0831.6,5.00,0.00,29.6,28.5,00.0,38.5,31.4,16.6,0000.0,0012.43,0003.75,0002.43
2022-05-15 17:49:00,,0831.6,5.00,0.00,29.6,28.6,00.0,38.5,31.4,16.5,0000.0,0011.86,0003.80,0002.39
2022-05-15 17:50:00,,0831.6,5.00,0.00,29.7,28.6,00.0,38.5,31.5,16.4,0000.0,0012.54,0003.86,0002.36
2022-05-15 17:51:00,,0831.6,5.00,0.00,29.7,28.7,00.0,38.5,31.5,16.6,0000.0,0012.74,0003.82,0002.33
2022-05-15 17:52:00,,0831.6,5.00,0.00,29.7,28.7,00.0,38.5,31.5,16.4,0000.0,0013.09,0003.81,0002.30
2022-05-15 17:53:00,,0831.6,5.00,0.00,29.7,28.8,00.0,38.6,31.6,16.3,0000.0,0013.17,0003.77,0002.28
2022-05-15 17:54:00,,0831.6,5.00,0.00,29.8,28.5,00.0,38.6,31.5,16.5,0000.0,0013.25,0003.76,0002.28
2022-05-15 17:55:00,,0831.5,5.00,0.00,29.7,26.3,00.0,38.6,31.1,16.8,0000.0,0012.96,0003.73,0002.28
2022-05-15 17:56:00,,0831.4,5.01,0.00,29.5,25.1,00.0,38.5,30.8,17.0,0000.0,0013.45,0003.77,0002.27
2022-05-15 17:57:00,,0831.4,4.98,0.00,29.5,25.5,00.0,38.5,30.9,16.9,0000.0,0013.34,0003.76,0002.29
2022-05-15 17:58:00,,0831.4,5.01,0.00,29.4,26.0,00.0,38.4,30.9,17.4,0000.0,0013.92,0003.78,0002.32
2022-05-15 17:59:00,,0831.4,4.99,0.00,29.4,26.5,00.0,38.4,31.0,17.3,0000.0,0014.94,0003.76,0002.32
